Temp_Advection
nan nan nan nan nan nan nan nan nan nan nan nan nan nan nan nan nan nan nan nan nan nan nan nan nan nan nan nan nan nan nan nan nan nan nan nan nan nan nan nan nan nan nan
nan 0 0 0 0 0 0 -0 -0 -0 -0 -0 -0 -0 -0 -0 -0 -0 -0 -0 0 0 0 0 0 0 0 0 -0 -0 -0 -0 -0 -0 -1 -0 -0 -0 0 0 0 0 nan
nan 0 0 0 0 0 0 -0 -0 -0 -0 -0 -0 -0 -0 -0 -0 -0 0 0 0 0 0 0 0 0 0 0 0 -0 -0 -0 -0 1 0 -1 -0 -0 -0 0 0 0 nan
nan 0 0 0 0 0 0 -0 -0 -0 -0 -0 -0 -0 -0 -0 0 0 0 0 0 0 0 0 0 -0 -0 -0 -0 0 0 -0 -0 -0 -0 -0 -0 -0 -0 -0 0 0 nan
nan 0 0 0 0 0 0 0 -0 -0 -0 -0 -0 -0 0 0 0 0 0 0 0 -0 -0 -0 -0 -0 -0 -0 -0 -0 -0 -0 -0 -0 -0 -0 -0 -0 -0 -0 -0 -0 nan
nan 0 0 0 0 -0 -0 0 0 0 0 0 0 0 0 0 -0 -0 -0 -0 -0 -0 -0 -0 -0 -0 -0 -0 -0 -0 -0 -0 -0 0 -0 -0 -0 -0 -0 -0 -0 -0 nan
nan 0 0 0 -0 -0 0 0 0 0 0 0 0 0 0 0 0 0 0 -0 -0 -0 -0 -0 -0 -0 -0 -0 -0 -0 -0 -0 -0 -0 0 -0 -0 -0 -0 -0 -0 -0 nan
nan 0 0 -0 -0 0 0 0 -0 -0 0 0 0 0 0 0 -0 -0 -0 -0 -0 -0 -0 -0 -0 -0 -0 -0 -0 -0 -0 -0 -0 -0 -0 -0 -0 -0 -0 -0 -0 -0 nan
nan 0 0 -0 0 -0 -0 -0 -0 -0 -0 0 0 0 0 -0 -0 -0 -0 -0 -0 -0 -0 -0 -0 -0 -0 -0 -0 -0 -0 -0 -0 -0 -0 0 0 0 -0 -0 -0 -0 nan
nan -0 -0 -0 -0 -0 -0 -0 -0 -0 -0 0 -0 -0 -0 -0 0 -0 -0 -0 -0 -0 -0 -0 -0 -0 -0 -0 -0 -0 -0 -0 0 0 0 -0 0 0 0 0 0 0 nan
nan -0 -0 -0 -0 -0 -0 -0 -0 -0 0 0 0 0 -0 -0 -0 -0 -0 -0 -0 -0 -0 -0 0 -0 0 0 -0 -0 -0 -0 -0 -0 0 0 0 0 0 0 0 0 nan
nan -0 -0 -0 -0 -0 0 0 -0 -0 0 0 0 0 0 -0 -0 0 -0 -0 -0 -0 0 0 -0 -0 -0 0 0 -0 -0 -0 0 -0 -0 -0 0 0 0 0 0 0 nan
nan -0 -0 -0 0 0 -0 0 0 0 0 0 0 0 0 0 -0 0 0 -0 -0 -0 -0 0 0 0 -0 -0 0 0 -0 -0 0 0 0 -0 -0 0 0 0 0 0 nan
nan 0 0 0 0 0 -0 0 0 0 0 0 0 0 0 0 0 0 0 0 0 -0 -0 0 0 0 0 0 0 0 -0 -0 -0 -0 -0 -0 -0 -0 -0 -0 0 0 nan
nan 0 0 0 0 0 0 0 0 0 0 0 0 0 0 0 -0 0 0 0 0 0 -0 0 0 0 0 0 0 0 0 0 -0 -0 -0 -0 -0 -0 -0 -0 -0 -0 nan
nan 0 0 0 0 0 -0 -0 -0 0 0 0 0 0 0 0 -0 -0 0 0 0 0 0 0 0 0 0 0 0 0 0 0 0 -0 -0 -0 -0 -0 -0 -0 -0 -0 nan
nan 0 0 0 0 -0 -0 -0 0 0 0 0 0 0 0 0 0 0 0 0 0 0 0 0 0 0 0 0 0 0 0 0 0 0 -0 0 -0 -0 -0 -0 -0 -0 nan
nan 0 0 0 0 0 0 0 0 0 0 0 0 0 0 0 0 0 0 0 0 0 0 0 0 0 0 0 0 0 0 0 0 0 0 0 0 -0 -0 0 0 -0 nan
nan -0 0 1 1 1 0 0 0 0 0 0 0 0 0 -0 0 0 0 0 0 0 0 0 0 0 0 0 0 0 0 0 0 0 0 0 1 0 -0 0 0 0 nan
nan 1 1 0 1 1 1 0 0 0 0 0 0 0 0 -0 0 0 0 0 0 0 0 0 0 0 0 0 0 0 0 0 0 0 0 0 0 0 -0 0 0 0 nan
nan 0 1 1 1 1 1 0 0 0 0 0 0 0 -0 -0 -0 0 0 0 0 0 0 0 0 0 0 0 0 0 0 0 0 0 0 0 0 0 0 0 0 -0 nan
nan 1 0 0 1 1 1 1 1 1 0 -0 0 0 0 -0 -0 0 0 0 0 0 0 0 0 0 0 0 0 -0 -0 0 0 0 -0 0 0 0 0 0 0 -0 nan
nan 0 0 0 1 1 1 1 1 0 1 1 0 -0 -0 -0 0 0 0 0 0 0 0 -0 0 1 1 0 0 0 -0 0 0 0 -0 -0 0 0 0 0 0 -0 nan
nan 0 0 0 1 1 0 1 1 1 1 1 1 -0 -1 -0 0 -0 0 0 0 0 0 0 0 0 0 0 1 1 0 0 -0 0 0 -0 -0 0 0 -0 -0 -0 nan
nan 1 0 0 0 0 0 0 1 1 0 1 1 1 -1 -1 -0 -0 -0 0 0 0 1 1 0 0 0 0 0 1 1 1 0 0 -0 -0 0 0 0 -0 -0 0 nan
nan nan nan nan nan nan nan nan nan nan nan nan nan nan nan nan nan nan nan nan nan nan nan nan nan nan nan nan nan nan nan nan nan nan nan nan nan nan nan nan nan nan nan
Wind_Speed
15 16 15 14 13 13 12 13 12 12 11 11 10 9 9 9 9 10 10 10 10 10 10 12 15 14 12 11 11 13 15 16 19 20 22 25 25 26 24 23 19 16 13
16 15 14 13 13 13 13 13 13 13 11 11 11 10 10 9 8 7 7 7 7 8 9 9 8 8 10 9 10 12 15 16 19 21 24 23 22 21 21 18 14 13 10
16 16 15 14 14 14 13 13 13 12 11 10 10 11 11 10 10 10 10 9 9 8 7 7 7 8 8 7 8 10 12 13 16 18 17 16 16 15 14 14 13 12 11
16 16 14 14 14 13 13 12 10 9 8 8 8 8 8 8 8 8 7 6 6 6 5 5 4 5 5 5 6 8 9 9 9 9 8 10 12 11 10 11 11 11 11
14 11 12 12 13 12 12 10 9 8 8 7 6 5 4 3 3 2 2 2 2 2 3 3 4 4 3 3 4 5 7 7 7 7 8 9 10 10 9 10 10 10 11
9 9 10 10 11 11 12 10 10 8 8 6 4 3 2 2 3 3 4 4 4 4 5 5 5 5 5 6 7 8 9 8 7 8 9 9 10 10 11 11 12 12 11
9 9 9 9 8 8 8 9 8 6 5 4 5 4 4 6 8 6 6 5 5 4 5 5 6 6 6 6 7 8 9 10 10 9 9 9 9 10 12 12 13 14 15
8 8 7 6 7 8 8 8 8 6 6 6 5 7 6 6 6 5 5 5 6 6 6 7 7 8 8 8 8 8 9 10 10 10 10 10 10 11 11 12 13 15 17
10 9 9 9 9 9 9 9 8 7 7 8 8 7 6 4 4 5 5 6 7 8 9 9 9 10 11 10 10 10 10 10 11 11 10 10 11 12 15 16 17 17 17
11 10 9 10 10 10 9 9 9 9 9 8 7 5 3 2 4 4 5 7 8 10 10 10 12 12 13 14 12 12 11 10 10 10 11 12 13 13 13 14 13 12 11
10 10 10 11 11 11 11 11 10 10 9 7 5 3 1 2 3 4 6 7 9 10 10 11 11 12 12 13 13 12 12 12 11 12 11 10 9 9 8 8 8 9 10
10 10 11 13 13 13 12 11 11 10 8 6 4 2 2 3 5 7 9 10 10 10 11 12 11 11 11 11 11 11 12 11 12 11 10 9 8 8 9 9 11 12 13
11 12 13 13 13 13 12 12 11 9 8 6 4 4 4 5 7 9 11 13 13 13 13 12 11 11 11 10 10 10 11 11 11 10 9 8 9 10 11 12 13 16 16
13 13 13 14 14 14 14 13 11 9 7 6 5 5 6 7 8 9 11 12 13 14 14 13 12 12 12 10 10 11 11 11 11 10 10 10 12 14 14 14 14 14 16
14 15 16 16 15 14 13 12 11 10 9 9 8 8 8 9 10 11 12 12 13 14 14 13 13 13 12 12 12 12 11 12 12 12 12 13 14 15 15 15 15 16 17
18 18 18 17 16 16 15 14 13 12 12 10 9 9 10 10 11 12 13 14 14 14 15 14 14 14 13 13 13 12 13 13 14 14 14 15 16 16 17 17 17 17 18
19 18 18 19 19 17 17 16 14 13 14 13 12 11 12 11 11 12 13 14 14 14 14 15 15 15 14 14 14 14 13 13 15 16 17 17 17 18 20 20 20 20 21
18 18 20 20 19 19 18 17 17 17 16 14 14 14 13 13 12 13 14 15 14 16 16 16 16 15 15 15 15 16 15 15 16 17 18 19 19 20 21 23 23 23 24
22 21 21 22 22 20 20 20 20 20 19 17 17 16 15 15 14 14 15 16 16 15 16 17 16 15 16 16 17 17 18 18 17 18 19 19 20 22 23 24 24 25 26
23 23 24 24 24 25 24 24 23 22 21 20 19 16 16 16 15 15 16 16 16 16 16 17 15 16 16 17 18 18 19 19 19 19 20 22 22 24 25 25 26 27 26
22 24 26 27 28 29 27 27 25 23 23 21 19 17 17 17 16 16 16 16 17 16 16 17 15 15 16 18 19 21 21 22 22 21 22 23 23 25 24 26 27 27 28
22 23 25 27 28 31 33 33 33 29 24 22 19 19 18 19 17 16 16 16 17 16 16 17 16 17 17 19 21 22 23 23 23 23 25 25 25 26 26 27 27 27 28
22 23 25 27 29 30 32 32 31 30 30 25 20 20 19 18 17 17 17 17 17 17 16 18 19 20 20 21 22 23 24 24 24 25 26 26 27 27 27 28 28 30 30
20 23 24 26 28 29 30 32 30 29 29 28 26 21 18 18 18 17 17 18 18 17 17 19 22 22 22 23 23 23 24 24 26 26 26 28 29 27 27 29 30 30 28
21 23 24 25 25 26 27 29 28 28 27 26 24 22 17 17 18 16 17 19 18 18 19 22 23 23 23 24 24 24 25 26 27 27 28 28 27 26 27 28 28 31 34
18 20 22 22 22 23 24 25 24 24 23 22 25 24 17 18 16 16 17 18 20 21 22 22 24 24 25 25 25 25 26 27 27 26 25 26 26 26 29 33 36 39 41
Wind_Direction
284 285 283 280 275 270 267 270 276 283 290 284 279 282 284 283 278 272 269 265 262 259 256 260 264 263 263 276 276 273 276 284 287 288 294 297 299 302 300 297 295 290 290
285 284 280 273 265 261 261 265 272 279 281 277 271 269 272 274 277 276 274 273 273 271 269 271 272 266 266 274 280 282 282 284 289 293 293 290 297 300 301 298 296 288 271
279 279 272 263 259 257 260 263 268 275 279 274 268 266 267 268 268 267 268 272 277 281 280 278 283 287 289 285 290 287 288 286 289 289 295 301 306 303 303 302 298 293 276
281 274 261 252 249 251 254 257 262 267 271 272 271 268 268 268 265 265 266 268 269 275 283 295 291 296 289 289 282 287 287 295 302 306 316 317 315 309 308 303 301 294 284
280 268 243 242 244 245 246 246 247 252 260 264 260 255 247 247 234 230 253 263 266 293 319 346 353 5 347 328 326 332 332 331 328 325 321 314 310 308 306 307 305 301 294
267 255 248 250 253 257 241 234 233 235 247 241 227 196 163 149 94 95 88 82 76 66 57 43 26 12 359 345 343 337 334 331 320 313 306 300 300 301 303 302 299 295 298
246 242 243 244 244 233 221 215 215 212 223 200 171 153 141 118 105 97 92 74 55 37 25 9 352 342 348 350 344 337 327 319 316 315 309 305 300 298 297 298 299 300 300
227 228 228 217 204 197 194 189 193 188 177 177 151 128 117 113 104 86 67 43 25 11 1 351 344 338 334 334 331 325 314 312 312 310 308 303 299 297 299 301 302 303 304
222 224 224 209 197 190 186 185 177 170 167 146 134 131 125 106 77 52 30 17 0 349 343 337 332 329 325 333 329 324 318 314 312 310 303 298 294 295 297 301 304 307 311
224 224 221 209 198 188 180 171 166 155 149 147 143 132 114 84 49 22 7 358 350 342 335 329 327 329 329 325 326 326 322 316 308 302 300 300 298 294 292 295 300 306 311
218 212 202 194 192 180 167 162 162 160 157 157 154 155 99 15 3 352 350 347 340 334 330 327 323 318 318 317 319 321 320 322 322 319 316 311 309 306 303 302 299 298 301
207 197 188 186 182 174 169 169 172 172 178 183 188 221 298 323 326 331 333 338 339 335 331 326 321 316 313 309 316 317 314 315 314 316 316 314 311 307 306 302 299 295 295
199 191 184 179 176 178 183 184 186 192 200 206 223 261 294 302 310 324 331 332 332 333 328 326 325 322 317 316 310 302 306 310 311 311 310 308 306 302 297 293 292 293 294
206 197 194 192 192 193 194 198 205 214 222 236 249 270 282 293 304 318 323 322 323 323 325 325 323 322 323 321 313 310 311 312 311 308 305 305 305 302 298 295 295 290 291
217 212 208 205 205 207 210 217 222 228 236 247 259 272 284 292 301 313 317 321 321 321 325 325 321 322 320 316 313 312 311 311 311 307 305 307 310 305 303 301 298 298 298
225 219 216 216 217 220 226 230 234 238 246 253 259 271 282 291 301 312 322 324 324 320 317 319 319 319 319 313 310 309 311 310 307 306 304 303 306 308 307 304 302 302 302
235 231 226 226 227 230 234 237 242 247 251 254 261 269 276 286 298 312 318 321 320 317 317 312 312 313 314 313 311 310 311 305 307 307 304 305 303 302 302 302 303 304 303
243 238 235 236 237 239 240 242 244 247 253 257 264 271 278 288 297 308 314 315 315 314 314 309 308 309 311 311 310 310 310 308 305 304 304 303 301 299 297 299 302 303 303
238 237 241 244 242 243 243 244 246 249 252 256 259 266 274 282 292 302 308 309 310 311 308 307 306 307 308 308 308 307 307 308 306 303 301 299 298 296 296 298 300 301 302
246 247 246 245 246 245 244 245 247 250 253 255 259 263 267 275 284 292 297 299 303 306 306 305 306 308 308 307 306 305 305 305 304 304 302 300 299 296 298 299 299 299 300
249 250 251 249 246 245 246 249 250 252 255 255 259 261 266 272 280 287 291 294 298 301 305 304 306 307 307 306 306 305 304 304 305 305 301 299 298 297 297 296 297 298 299
250 254 256 257 254 252 252 248 245 244 245 252 257 261 264 270 277 283 288 292 294 298 301 301 303 303 304 304 303 302 302 303 305 302 301 300 299 298 299 298 298 299 300
250 253 256 258 257 255 255 258 255 253 251 239 245 256 262 269 276 283 290 292 293 295 298 297 300 301 303 304 304 304 304 305 305 303 303 302 300 301 301 301 303 302 302
256 258 259 261 262 260 258 258 257 253 250 245 238 240 259 267 274 282 288 293 291 293 295 294 296 299 303 304 304 304 304 304 303 304 302 300 300 301 301 302 303 305 307
265 264 264 264 266 265 262 260 255 252 250 252 249 234 243 264 275 281 290 290 292 293 292 294 296 300 300 302 303 302 302 302 303 304 302 303 304 306 306 305 307 308 307
276 275 273 268 266 266 264 262 259 255 253 255 250 247 238 259 270 278 288 298 293 293 296 298 299 300 300 301 301 298 299 300 299 299 298 299 299 300 304 305 306 307 308
Height
1499 1498 1498 1498 1499 1498 1498 1498 1498 1497 1497 1498 1498 1497 1496 1496 1495 1494 1494 1494 1494 1495 1495 1496 1496 1496 1496 1496 1496 1496 1496 1496 1496 1495 1495 1494 1492 1491 1490 1488 1487 1487 1487
1495 1494 1493 1493 1494 1494 1495 1494 1494 1494 1494 1494 1494 1494 1494 1493 1493 1492 1492 1492 1491 1491 1491 1490 1490 1490 1491 1492 1492 1492 1492 1492 1491 1491 1490 1488 1487 1485 1484 1483 1483 1483 1483
1490 1490 1489 1489 1489 1491 1491 1491 1491 1490 1490 1491 1491 1491 1491 1490 1490 1490 1490 1489 1489 1488 1488 1488 1487 1487 1487 1488 1487 1488 1488 1487 1487 1486 1485 1483 1482 1481 1480 1480 1480 1480 1480
1484 1484 1484 1485 1486 1487 1488 1488 1488 1488 1488 1488 1488 1488 1488 1488 1487 1487 1487 1487 1487 1487 1487 1486 1485 1485 1485 1485 1484 1484 1484 1483 1482 1482 1482 1482 1481 1480 1479 1478 1478 1477 1478
1479 1479 1480 1481 1482 1483 1484 1484 1485 1485 1486 1487 1486 1486 1486 1486 1485 1485 1485 1485 1485 1485 1484 1484 1484 1483 1483 1482 1481 1481 1481 1480 1480 1481 1480 1480 1479 1479 1478 1477 1476 1475 1475
1475 1477 1477 1477 1478 1480 1480 1480 1483 1481 1485 1485 1485 1485 1485 1485 1484 1484 1484 1484 1484 1484 1484 1483 1483 1483 1482 1481 1479 1478 1479 1479 1479 1478 1478 1478 1478 1477 1476 1475 1474 1473 1473
1472 1474 1474 1474 1475 1477 1477 1479 1480 1479 1483 1484 1484 1484 1485 1485 1485 1484 1484 1485 1484 1484 1483 1482 1482 1482 1481 1479 1478 1477 1478 1478 1476 1476 1476 1476 1476 1475 1473 1472 1471 1470 1469
1470 1471 1471 1472 1473 1475 1476 1476 1478 1478 1480 1483 1483 1484 1485 1486 1486 1486 1485 1485 1483 1483 1482 1481 1481 1480 1479 1477 1476 1476 1476 1475 1474 1473 1473 1473 1473 1472 1470 1470 1468 1467 1466
1467 1469 1470 1471 1472 1473 1474 1475 1476 1477 1480 1482 1484 1485 1486 1487 1487 1486 1485 1483 1483 1482 1481 1480 1480 1478 1476 1476 1474 1474 1473 1473 1471 1471 1471 1470 1470 1469 1467 1466 1465 1464 1462
1465 1466 1468 1469 1471 1471 1472 1474 1476 1478 1480 1483 1485 1486 1486 1487 1486 1485 1484 1483 1481 1480 1479 1478 1477 1476 1474 1473 1473 1471 1470 1470 1469 1469 1468 1467 1466 1465 1464 1463 1462 1461 1461
1462 1463 1465 1467 1470 1470 1472 1473 1477 1478 1481 1483 1484 1485 1485 1485 1484 1485 1483 1481 1480 1479 1477 1476 1475 1474 1472 1471 1470 1469 1468 1466 1466 1465 1464 1463 1463 1462 1461 1461 1460 1460 1459
1461 1463 1464 1466 1468 1470 1472 1474 1477 1479 1481 1482 1483 1484 1484 1484 1483 1482 1481 1479 1477 1476 1475 1474 1473 1471 1470 1469 1468 1466 1465 1464 1463 1462 1462 1461 1460 1459 1459 1459 1458 1457 1457
1461 1462 1464 1466 1468 1471 1473 1474 1476 1478 1480 1480 1481 1482 1481 1482 1481 1480 1478 1477 1474 1473 1472 1470 1469 1469 1468 1466 1465 1464 1463 1462 1461 1460 1459 1458 1458 1457 1457 1456 1456 1454 1453
1460 1462 1464 1466 1468 1470 1472 1473 1475 1477 1478 1478 1479 1479 1480 1480 1479 1477 1475 1474 1473 1471 1469 1467 1466 1465 1465 1464 1463 1461 1460 1459 1458 1457 1456 1456 1455 1454 1453 1452 1452 1451 1449
1459 1461 1463 1465 1467 1469 1470 1472 1473 1474 1475 1476 1476 1477 1477 1477 1476 1474 1472 1471 1470 1468 1466 1465 1463 1462 1461 1460 1459 1458 1457 1456 1455 1454 1453 1452 1452 1451 1450 1449 1448 1446 1445
1456 1458 1460 1462 1464 1466 1468 1469 1470 1471 1472 1473 1473 1474 1474 1474 1472 1471 1469 1467 1466 1464 1463 1462 1461 1459 1458 1457 1456 1455 1454 1452 1451 1451 1450 1449 1448 1447 1446 1445 1443 1442 1440
1453 1455 1457 1459 1461 1463 1464 1465 1467 1468 1469 1470 1470 1470 1471 1470 1469 1467 1465 1464 1463 1461 1460 1459 1457 1456 1455 1453 1452 1451 1450 1449 1447 1447 1446 1446 1444 1443 1441 1439 1438 1436 1434
1449 1451 1453 1455 1457 1458 1460 1461 1463 1463 1464 1465 1466 1466 1466 1466 1465 1463 1462 1460 1460 1458 1456 1455 1454 1452 1451 1449 1448 1446 1446 1445 1444 1442 1441 1440 1439 1437 1435 1434 1432 1430 1428
1442 1445 1447 1450 1452 1453 1455 1456 1457 1458 1459 1460 1461 1461 1462 1461 1460 1459 1458 1457 1456 1454 1453 1451 1450 1448 1447 1445 1444 1442 1441 1440 1439 1438 1437 1435 1433 1431 1429 1427 1426 1424 1421
1437 1439 1441 1443 1446 1447 1448 1450 1451 1452 1453 1454 1455 1457 1457 1456 1456 1455 1453 1452 1451 1450 1449 1447 1446 1444 1442 1441 1439 1438 1436 1435 1434 1432 1431 1429 1427 1424 1422 1420 1418 1416 1414
1432 1433 1435 1437 1438 1439 1442 1443 1445 1446 1447 1448 1450 1451 1451 1451 1450 1450 1449 1448 1447 1446 1444 1443 1442 1440 1439 1437 1435 1433 1431 1430 1428 1426 1424 1422 1420 1417 1415 1413 1411 1409 1406
1426 1427 1429 1430 1431 1431 1432 1433 1435 1437 1440 1442 1444 1444 1445 1444 1445 1445 1444 1443 1442 1441 1439 1438 1437 1435 1434 1432 1430 1428 1426 1424 1422 1419 1417 1415 1412 1410 1408 1405 1403 1401 1398
1420 1421 1422 1422 1423 1424 1425 1427 1427 1429 1430 1432 1436 1438 1439 1439 1439 1439 1438 1438 1436 1436 1434 1433 1431 1429 1428 1426 1424 1421 1419 1417 1414 1412 1409 1407 1404 1402 1400 1397 1395 1392 1390
1414 1414 1415 1415 1416 1417 1418 1418 1420 1422 1424 1425 1427 1430 1433 1434 1434 1433 1433 1432 1431 1430 1429 1427 1425 1423 1421 1419 1417 1414 1412 1410 1407 1405 1402 1399 1396 1394 1392 1389 1387 1384 1381
1408 1408 1408 1408 1409 1410 1411 1412 1413 1415 1417 1419 1421 1422 1426 1428 1428 1428 1427 1426 1425 1424 1423 1421 1419 1417 1415 1413 1410 1408 1406 1403 1400 1397 1394 1391 1388 1386 1384 1381 1379 1375 1372
1401 1401 1402 1402 1403 1404 1404 1405 1407 1409 1411 1413 1415 1417 1420 1422 1422 1422 1422 1421 1420 1418 1416 1414 1412 1410 1408 1406 1404 1401 1398 1396 1393 1390 1387 1385 1382 1379 1377 1373 1369 1364 1360